Vorticity
7 7 9 4 4 7 7 5 7 6 5 10 11 8 4 2 -0 3 3 4 8 7 9 8 7 7 8 12 10 8 9 6 5 5 4 5 5 6 6 5 6 6 6 7 7 7 7 8 7 6 6 7 7 7 7 7 7 7 5 5 6 5 4 4 5 7 7 5 6 5 5 6 6 6 6 4 4 5 4 4 5 4 4 5 5 4 6 6 7 7 6 6 8 8 7 7 6
10 12 7 6 7 7 9 6 6 4 5 9 9 8 5 2 1 3 3 5 9 7 9 8 7 8 8 8 4 4 8 7 6 6 5 4 5 5 5 5 4 5 6 8 8 8 7 7 6 6 6 6 6 7 8 7 7 7 6 6 6 5 4 4 6 7 6 5 5 5 5 6 5 5 5 5 5 5 4 5 5 5 4 5 5 5 6 6 5 6 7 6 7 8 9 7 5
6 8 7 7 5 4 9 9 7 4 6 8 5 8 5 0 2 4 5 6 10 7 6 7 7 9 9 7 5 5 6 6 5 5 4 4 5 4 4 4 4 5 5 8 8 7 7 7 6 6 6 6 5 6 8 8 8 7 7 6 6 6 5 5 6 6 5 4 4 5 5 5 5 5 4 5 5 5 4 4 5 5 3 4 5 5 6 5 4 4 5 6 6 8 9 7 7
5 6 7 1 1 5 6 8 7 4 5 5 5 9 4 -1 3 6 6 7 10 7 4 6 7 8 8 7 6 6 5 6 5 4 5 5 5 3 4 5 5 5 5 8 8 6 7 6 6 6 7 7 6 6 7 8 8 8 9 7 7 7 6 5 5 6 5 5 5 4 5 5 6 5 4 5 5 5 4 4 4 5 5 4 5 5 6 6 5 4 5 6 6 8 7 6 8
7 3 8 -1 4 13 5 8 9 6 4 5 8 8 3 2 5 6 6 8 11 9 5 5 6 7 7 7 6 5 6 6 5 5 6 4 4 4 5 6 5 6 6 8 8 7 8 6 7 7 8 7 6 6 6 6 7 9 9 9 9 8 7 5 6 7 5 5 5 5 6 4 6 6 4 5 4 5 5 5 5 5 6 5 5 5 7 6 5 5 6 6 5 7 7 6 8
6 -1 13 7 10 15 4 7 8 7 4 5 10 5 3 4 4 4 6 7 8 8 7 7 7 6 5 6 6 6 6 6 6 6 6 4 4 5 6 6 6 7 6 9 9 7 7 7 7 8 8 8 7 6 6 6 6 7 8 10 9 8 7 6 6 6 5 6 5 6 5 3 7 7 5 5 4 6 6 5 6 5 6 6 5 6 8 6 6 6 6 5 4 6 7 7 8
4 2 17 10 12 13 4 8 6 7 4 6 8 2 4 4 3 6 7 6 7 9 10 10 8 5 5 6 5 6 7 6 7 7 7 6 5 6 6 7 7 7 7 10 10 7 7 8 7 9 10 8 6 5 6 6 5 6 7 8 8 7 6 5 5 5 5 5 5 6 4 4 10 6 5 7 5 6 6 6 7 6 7 9 8 7 9 7 7 9 7 5 4 5 6 7 7
3 6 16 10 14 14 8 10 6 7 7 8 5 2 6 2 1 7 10 7 7 8 10 10 6 5 6 5 4 5 8 8 7 7 8 6 5 6 7 7 7 8 9 10 7 6 7 8 7 8 10 9 7 5 6 6 4 5 7 8 7 6 6 5 5 6 5 4 6 6 5 6 7 4 4 8 9 7 6 7 8 8 8 10 10 9 9 8 8 10 8 7 6 6 7 7 6
5 4 22 27 18 13 13 11 7 8 8 7 3 5 7 2 2 7 10 6 5 6 8 9 6 7 6 5 5 6 9 8 7 6 7 7 5 6 6 7 7 7 9 11 7 6 7 7 7 7 9 10 8 5 5 7 6 5 6 8 7 6 7 4 5 7 5 5 6 6 8 6 4 4 4 8 10 9 7 6 7 8 8 8 10 10 11 10 10 9 8 8 8 10 9 7 6
7 10 38 45 17 10 15 11 7 7 8 6 3 5 5 3 6 10 11 5 4 6 7 9 8 8 5 4 6 6 8 7 6 6 7 7 6 5 6 6 6 5 6 11 9 6 7 5 6 8 9 10 11 8 5 7 8 5 5 8 7 6 7 4 4 6 6 7 6 6 7 6 6 7 7 6 6 8 9 7 6 7 8 9 11 11 11 11 10 9 10 8 8 12 10 6 6
21 23 28 26 9 9 12 9 7 5 7 5 2 3 4 7 10 11 8 5 7 9 8 9 8 7 5 5 5 6 7 6 5 5 6 5 6 5 6 5 5 5 4 9 10 6 7 6 6 8 9 10 12 12 9 8 9 7 4 7 8 6 6 4 5 5 6 7 6 7 5 5 6 7 9 7 6 9 11 10 8 8 8 9 11 11 10 10 12 11 8 5 7 13 9 4 6
43 27 6 9 9 10 7 7 5 4 7 4 2 1 4 9 11 9 6 7 10 11 10 8 7 5 5 5 4 5 6 6 5 5 4 4 5 5 5 6 5 6 4 7 9 7 7 7 7 8 10 10 12 14 13 9 9 9 5 6 7 6 5 4 5 6 6 6 7 8 5 6 6 7 12 12 12 12 10 11 10 9 9 10 10 10 11 11 13 12 6 4 6 9 7 4 7
40 14 3 11 7 8 5 6 3 4 7 2 2 1 6 11 9 8 7 8 11 11 9 7 7 6 4 4 4 4 5 5 4 4 4 3 4 4 5 6 6 6 6 6 8 7 7 7 7 9 10 10 11 12 14 11 9 10 7 5 6 5 6 6 6 6 6 7 8 6 5 9 8 8 12 13 15 12 9 12 11 10 11 12 10 11 14 13 13 10 4 6 7 8 8 7 7
32 7 3 8 3 8 4 3 4 5 6 2 3 3 8 12 8 7 8 9 10 10 8 7 6 4 3 2 4 3 3 5 4 5 4 3 4 4 5 6 7 7 7 6 8 8 8 8 7 8 9 9 10 10 13 13 10 10 8 6 6 5 5 8 7 7 8 9 8 5 7 10 9 9 9 11 14 12 10 11 10 9 10 11 12 14 16 13 12 9 6 8 10 12 11 10 8
28 12 4 4 5 6 2 4 5 5 4 3 4 5 11 14 9 5 7 9 8 10 10 7 3 4 3 -0 2 2 3 4 4 5 4 4 4 5 6 6 7 7 7 7 7 8 9 9 7 7 9 9 9 9 12 13 11 10 9 7 8 6 5 8 7 8 10 10 8 7 7 9 10 10 9 11 12 11 10 9 9 9 9 9 10 12 13 13 12 8 8 9 9 11 10 10 9
14 13 7 5 5 2 3 6 4 4 4 3 4 4 9 11 9 5 7 8 8 10 8 6 6 8 6 1 1 1 3 4 4 5 5 5 5 6 6 6 7 6 7 7 7 8 9 9 7 7 8 9 9 10 11 13 12 10 10 8 8 9 8 7 7 10 11 9 8 8 8 8 10 10 8 10 10 10 10 8 8 10 10 9 10 12 13 12 10 7 9 8 7 9 10 10 9
8 15 11 5 5 3 5 7 3 2 3 5 4 2 4 6 8 6 5 7 8 7 4 7 10 8 6 4 2 1 2 3 4 5 5 6 5 6 6 6 6 6 6 7 8 8 9 9 7 6 7 8 9 10 10 13 13 11 11 9 9 11 11 9 9 11 10 9 8 8 9 9 9 11 9 9 10 11 12 10 8 9 10 10 11 13 12 9 9 9 8 7 7 8 9 9 7
21 25 13 7 8 9 8 5 2 1 3 5 3 1 2 3 6 7 7 8 7 5 5 6 8 9 7 6 3 2 3 3 4 4 5 6 5 5 5 6 6 6 6 6 8 8 8 9 7 6 7 9 9 8 8 10 11 11 11 11 10 11 10 10 11 10 7 8 7 6 9 10 9 11 11 7 7 8 10 11 9 9 11 11 9 11 12 11 10 9 8 7 7 8 7 6 5
34 32 12 9 11 9 6 3 3 2 3 2 1 3 3 4 7 8 9 9 6 5 6 6 9 10 8 7 6 3 2 2 4 4 5 5 5 5 5 5 5 6 6 6 8 8 9 9 8 7 8 8 8 7 8 9 9 10 10 10 10 8 9 9 9 7 6 7 7 7 8 10 9 9 10 6 4 6 7 8 8 8 10 10 9 9 12 12 9 8 8 8 8 8 7 6 7
33 34 14 12 9 4 5 5 4 2 4 1 0 3 3 6 9 9 9 9 7 6 5 6 8 6 7 11 8 2 2 3 3 4 5 6 5 4 5 5 5 5 6 6 7 8 9 10 9 8 8 7 7 7 8 9 8 10 10 9 9 8 8 8 7 6 5 7 7 8 9 9 10 9 10 7 3 4 6 6 6 6 8 10 10 9 10 11 10 9 8 9 9 8 8 8 8
23 25 11 12 7 4 7 6 4 1 4 3 -1 2 4 5 9 11 10 8 8 6 7 8 6 4 8 12 8 2 2 2 2 4 5 7 6 5 5 4 5 6 6 6 7 8 9 10 10 9 9 7 7 8 8 9 9 9 10 10 9 8 8 7 6 6 6 8 8 8 9 9 10 8 9 9 5 4 5 6 6 6 8 10 11 11 12 12 9 7 7 9 9 7 9 9 9
11 13 11 12 8 8 8 7 7 3 4 3 -1 2 5 4 9 13 11 10 9 8 11 12 6 4 8 10 7 3 2 3 3 5 6 7 7 5 6 4 5 6 6 7 7 8 9 9 9 8 8 7 7 8 8 9 10 9 9 10 8 7 7 7 5 6 7 7 7 7 8 10 10 8 7 8 8 6 5 4 4 4 6 8 9 11 12 12 9 8 9 8 8 8 8 9 8
4 9 16 14 9 8 5 7 8 2 4 4 -1 2 5 3 7 12 10 11 11 8 13 14 8 6 9 8 5 2 2 5 3 5 6 7 6 5 6 5 5 6 6 6 7 7 8 8 8 7 7 8 8 8 9 9 9 8 8 9 7 6 6 6 5 5 7 7 7 7 8 10 10 10 9 7 8 5 3 2 2 2 4 6 6 7 9 9 8 7 8 7 7 8 8 8 8
2 8 17 15 11 6 2 6 6 2 5 5 1 3 5 3 7 11 9 9 9 8 13 14 8 6 9 8 5 3 3 3 3 4 6 6 6 6 6 6 5 6 6 6 7 6 6 8 8 8 8 8 9 8 8 10 10 7 7 8 7 6 5 5 6 5 7 8 7 7 6 8 8 9 9 7 9 7 4 2 2 2 2 4 5 6 7 8 8 7 7 7 6 7 8 8 7
3 6 14 16 13 6 2 5 4 4 5 4 3 5 6 5 7 10 8 7 7 8 13 14 11 7 9 7 4 3 2 3 3 4 5 6 5 6 6 6 5 5 6 7 7 6 5 9 9 9 10 9 10 9 8 10 11 9 7 8 6 6 6 5 7 6 7 8 7 7 7 7 8 9 8 7 7 7 6 4 4 4 4 4 5 6 7 8 9 8 7 7 6 7 9 8 7
5 4 8 15 17 10 3 5 4 4 5 4 3 5 7 5 6 9 10 8 6 7 9 13 12 8 9 7 3 4 3 4 4 4 5 5 5 6 6 6 6 5 6 8 7 5 6 10 10 10 11 11 10 9 9 10 11 11 8 7 6 5 6 6 7 7 7 8 8 7 7 7 7 9 10 9 8 7 7 6 6 6 6 6 5 6 7 7 8 8 8 7 7 8 9 8 7
4 2 5 11 20 19 6 4 6 2 3 7 5 3 7 6 3 6 10 8 6 6 7 10 10 9 10 6 5 5 4 5 6 6 6 5 4 5 6 6 6 5 6 9 7 4 6 10 11 11 12 11 10 9 9 10 9 9 8 7 6 6 6 6 7 8 8 9 10 10 9 9 8 8 9 9 9 9 8 8 8 8 8 7 6 6 6 7 6 7 7 7 7 8 10 8 6
2 2 4 4 15 23 12 5 7 4 2 7 8 2 4 8 4 5 10 8 7 7 6 8 9 9 10 7 6 5 5 7 7 7 7 6 5 4 6 6 6 6 6 8 7 4 5 11 12 11 12 10 9 10 9 9 8 8 8 7 7 6 7 7 8 8 9 10 10 11 12 11 10 9 8 8 7 9 9 8 9 9 10 9 8 7 6 6 5 6 7 7 7 8 10 8 6
1 0 1 0 7 12 12 11 5 7 5 3 11 5 -1 5 5 6 11 9 8 8 6 6 8 9 9 8 5 3 5 7 6 8 9 7 6 4 6 6 6 6 6 7 6 3 6 11 13 11 12 11 9 10 9 8 8 7 7 7 7 7 8 8 8 8 9 10 10 10 12 12 12 11 9 9 8 8 9 9 9 9 10 9 10 9 7 6 5 5 5 6 6 7 10 9 6
1 1 1 1 2 1 11 18 5 8 10 -1 7 9 -1 1 3 4 11 12 8 8 7 5 6 7 9 9 5 4 5 5 5 7 9 8 7 5 6 6 6 6 6 7 5 4 7 11 13 12 11 10 9 9 8 8 8 8 7 7 7 8 8 8 7 8 9 9 9 10 11 11 11 12 11 10 9 9 10 9 8 8 8 8 10 10 9 7 5 5 4 5 6 7 9 8 5
2 2 2 -3 -1 2 10 19 12 9 10 2 7 11 4 0 1 4 8 12 9 7 8 5 5 6 7 9 6 5 4 4 5 6 8 9 8 7 6 6 6 7 6 6 6 4 7 11 13 12 10 9 8 8 7 7 7 7 8 7 7 7 7 7 7 8 9 8 8 8 10 11 11 11 11 11 12 12 12 10 9 8 8 8 10 10 11 10 7 5 5 5 5 6 9 7 6
4 2 7 -3 -4 5 2 9 15 10 5 8 15 13 8 2 -0 4 5 10 11 8 9 6 5 6 7 9 8 6 4 4 5 4 6 9 9 7 6 7 7 7 7 6 6 5 6 10 12 12 10 7 7 7 6 6 7 7 8 7 7 7 6 7 7 7 8 7 7 7 8 9 11 12 12 12 13 13 13 12 10 9 8 9 10 11 12 12 9 7 7 6 5 7 8 7 6
2 -3 12 7 -4 3 2 2 8 7 1 10 25 16 7 6 1 3 4 7 11 9 10 8 5 6 8 9 9 7 4 3 4 4 6 8 9 8 5 7 8 8 8 6 4 4 6 8 11 12 10 7 6 6 6 7 8 7 7 8 7 7 6 6 7 6 6 6 6 7 7 8 9 10 11 12 13 13 13 12 11 10 10 10 10 11 12 11 10 9 9 8 6 7 8 7 6
3 -6 7 10 -3 -1 7 7 4 4 -2 9 37 24 3 7 3 3 5 5 10 10 9 9 6 6 8 9 8 7 4 2 3 3 5 7 7 8 6 5 8 9 7 5 3 3 6 7 10 12 10 7 5 5 6 7 8 8 7 8 7 7 7 7 6 6 5 5 6 6 7 7 7 9 10 11 12 12 12 12 11 11 11 11 10 10 10 10 10 10 10 8 8 8 8 7 7
6 -1 3 8 2 -3 0 9 8 5 0 5 24 16 4 11 5 1 5 5 8 9 9 10 7 5 6 8 7 6 5 3 4 4 4 6 6 7 7 4 5 9 8 5 3 3 5 6 9 12 11 8 6 5 6 6 7 7 7 7 8 7 7 7 7 6 5 4 5 6 6 7 7 8 9 10 10 11 11 11 11 11 11 11 11 10 9 9 9 9 9 8 8 9 8 8 7
8 2 3 3 3 6 0 4 9 5 7 6 5 11 12 10 5 2 3 6 8 9 9 10 9 6 5 6 7 6 5 5 5 5 4 5 6 7 8 5 3 8 10 6 4 4 4 5 8 11 13 9 6 5 5 6 6 5 6 7 7 8 8 8 7 6 6 5 5 6 6 7 7 8 8 9 10 10 10 10 9 9 10 10 11 11 10 9 9 9 9 9 9 9 8 8 8
11 3 6 3 -1 10 6 3 8 3 9 8 12 43 39 8 3 3 1 5 8 9 9 10 11 9 5 4 6 6 6 7 6 5 5 5 7 7 7 7 3 6 10 7 5 4 3 4 6 9 12 10 6 5 4 4 5 4 5 5 5 6 7 8 8 7 6 5 5 6 6 6 7 8 8 8 9 9 10 9 9 8 9 10 11 10 10 10 10 10 10 10 9 9 8 8 8
10 5 6 7 2 8 3 0 7 4 7 4 10 45 42 10 5 4 2 5 6 8 8 8 11 10 6 4 5 6 5 7 7 5 5 6 6 6 7 9 5 5 10 9 6 4 3 3 5 7 11 13 8 5 4 3 4 4 4 4 4 5 6 6 7 7 7 7 6 6 6 6 7 8 8 8 8 9 9 9 9 9 9 10 10 10 10 11 11 10 9 9 9 8 8 8 9
6 8 5 5 3 6 4 1 7 5 6 7 4 10 12 11 11 4 4 6 4 8 8 6 9 9 8 5 4 7 6 6 6 5 5 5 6 7 8 10 8 5 8 10 7 3 3 3 5 6 8 12 11 6 4 4 4 5 4 4 4 4 6 6 6 7 7 7 7 6 6 7 7 8 8 8 9 9 9 9 9 8 8 9 10 10 10 10 9 9 8 9 8 8 9 9 10
2 7 7 7 4 6 7 5 8 5 -0 7 9 -0 -4 10 17 5 1 5 4 6 8 7 7 7 8 8 6 6 6 6 4 4 6 5 6 7 9 9 8 6 6 10 8 4 3 3 4 6 7 10 12 10 6 4 4 5 5 5 4 4 5 5 6 6 7 7 7 6 7 7 7 8 8 9 9 9 9 9 9 8 8 8 9 9 9 9 8 7 7 8 8 8 9 10 10
2 3 5 9 6 3 6 7 6 6 3 3 7 6 0 5 17 14 3 4 5 5 7 7 7 7 6 8 9 7 6 6 4 4 5 5 6 7 9 8 8 7 6 9 10 6 4 4 4 5 7 8 10 12 11 7 4 4 5 5 5 5 4 5 5 5 6 7 7 7 7 6 7 7 8 9 9 9 9 9 9 8 7 7 7 7 6 8 7 7 7 8 9 9 10 10 9
5 4 2 6 7 1 5 8 3 7 9 2 1 6 7 3 7 14 10 5 4 6 7 4 6 10 8 8 9 8 8 6 5 4 4 6 6 7 9 8 8 8 7 7 9 9 5 4 4 4 6 7 8 10 11 11 8 4 4 5 5 5 5 4 5 5 6 7 7 7 7 6 7 8 8 8 9 9 10 10 9 9 8 7 7 6 7 8 8 8 8 9 10 10 10 10 8
6 6 2 3 6 2 5 8 8 12 10 7 7 1 4 8 4 10 20 13 3 5 8 4 3 8 10 10 8 7 8 7 7 5 4 6 6 6 8 8 8 8 7 6 7 10 8 5 5 5 4 6 8 9 9 11 11 7 4 4 4 5 5 5 5 5 5 6 7 6 7 7 7 8 8 8 9 9 10 10 10 9 8 7 7 7 7 8 8 8 9 10 10 10 10 9 7
5 6 4 4 5 2 3 3 4 10 5 7 12 -1 1 13 5 5 22 21 6 -0 5 6 4 6 10 10 8 6 6 6 8 7 5 5 6 6 7 8 8 8 8 7 6 8 10 7 5 4 4 4 7 8 9 9 11 10 6 5 5 4 5 5 5 5 5 5 6 6 6 8 8 8 8 9 9 10 10 10 10 9 8 7 7 7 8 9 9 9 10 10 10 9 8 7 5
4 6 5 4 3 1 4 1 -2 4 4 5 7 -2 1 13 7 1 8 14 8 -1 2 8 6 6 9 10 9 7 6 5 6 8 6 4 5 6 7 8 8 8 8 8 6 6 8 9 6 4 4 4 5 7 9 9 10 11 9 6 5 5 4 5 5 6 6 6 6 6 6 6 7 7 8 9 9 9 10 10 10 9 9 8 8 9 9 9 9 9 9 9 9 7 6 4 3
3 7 7 6 5 1 3 2 -2 3 5 4 8 3 -1 7 11 6 2 4 6 5 5 7 7 6 6 8 8 7 9 8 6 9 8 5 4 6 8 8 7 8 8 8 8 6 6 9 8 5 4 5 5 5 8 9 9 11 11 10 8 6 5 5 6 6 6 6 6 6 6 6 6 6 7 7 8 9 9 9 10 10 10 9 10 10 10 10 9 8 8 7 6 5 4 3 2
4 5 5 7 6 1 1 3 1 3 5 3 7 8 -1 2 9 9 8 6 4 7 8 8 8 6 4 6 8 7 10 11 8 9 10 7 4 6 8 8 7 8 8 7 8 7 6 7 8 7 5 5 5 5 6 8 8 9 10 11 10 8 6 5 6 6 6 6 5 6 7 6 6 5 6 7 7 8 8 8 9 10 9 8 9 9 7 7 7 5 5 4 4 4 3 3 3
8 4 2 5 7 4 2 5 4 1 4 7 9 10 3 0 3 6 10 11 7 5 8 10 9 6 4 4 6 8 9 9 9 10 11 9 5 5 7 7 7 8 8 8 7 8 7 5 6 7 6 5 5 5 5 6 7 7 9 10 10 9 8 6 5 6 6 6 6 6 6 6 6 6 6 6 7 8 8 8 8 8 8 7 7 7 5 5 5 3 3 3 3 3 3 4 4
9 4 2 5 7 8 3 1 6 4 0 4 7 9 8 3 1 1 4 9 13 13 10 9 8 5 4 4 5 9 9 8 9 10 10 9 7 6 6 6 6 6 8 8 7 8 9 7 5 5 6 6 6 5 5 5 6 6 6 9 9 9 9 7 6 5 5 6 6 6 6 6 7 6 6 6 7 7 8 8 7 7 6 6 6 5 4 4 3 3 3 3 3 3 4 4 4
10 5 4 6 2 6 8 -1 -0 4 0 1 5 7 7 6 4 -0 -1 1 6 14 16 13 11 8 2 0 3 8 9 7 7 11 11 9 8 7 6 5 5 6 6 7 8 8 8 9 7 5 4 5 6 6 5 5 6 6 6 7 8 9 9 8 7 6 5 5 5 5 5 5 5 6 6 6 7 7 7 7 7 7 6 5 5 5 4 4 3 3 3 3 4 4 4 4 4
9 9 6 7 2 1 9 8 0 1 2 0 4 7 7 7 8 5 2 -0 -1 4 10 12 17 17 6 -1 1 6 10 8 5 8 11 10 8 7 8 7 4 5 6 5 7 7 8 9 8 7 5 3 4 6 6 6 6 5 6 6 7 7 8 9 9 8 7 5 5 4 4 5 5 5 5 6 7 6 6 7 7 7 6 5 4 4 4 4 3 3 3 3 4 4 5 5 5
6 10 9 7 8 4 2 8 7 4 7 4 -0 6 10 6 10 13 7 5 5 2 1 4 12 16 11 7 6 6 8 9 6 7 10 11 9 8 9 8 5 5 5 5 6 6 7 8 8 8 7 5 5 4 5 6 7 6 6 6 7 6 6 8 9 9 9 8 7 6 6 6 6 6 6 6 6 6 6 7 7 7 7 6 5 4 5 6 5 5 4 4 4 5 5 6 6
8 7 11 7 8 9 2 4 7 2 4 7 0 3 11 4 2 9 7 6 10 9 5 3 5 10 16 22 24 16 10 10 7 5 9 10 9 8 8 8 8 6 5 5 5 5 6 7 9 9 8 7 6 5 5 5 6 7 7 6 6 6 6 6 7 8 9 9 9 9 8 8 7 7 7 6 6 6 6 6 6 6 7 7 6 5 5 5 6 6 6 6 6 6 6 6 7
13 5 7 9 6 7 6 3 7 7 6 7 2 0 7 6 1 3 2 3 6 8 11 9 8 15 17 16 18 17 15 15 11 5 7 10 8 7 7 8 9 7 5 5 5 5 5 5 8 9 9 9 8 8 6 5 5 6 7 7 6 6 7 6 6 6 6 8 9 10 10 10 9 8 8 8 7 6 6 6 6 6 6 6 6 6 5 5 5 6 6 6 7 7 8 8 8
12 10 5 10 6 6 12 5 2 8 11 15 15 8 7 7 6 6 4 3 2 3 8 10 12 14 5 -6 -2 5 8 11 14 11 6 8 9 6 5 7 9 8 6 5 5 6 5 4 5 7 8 9 10 10 9 6 6 5 6 7 7 6 6 6 6 6 6 6 7 8 9 9 9 8 8 9 8 7 7 7 7 7 7 7 7 6 6 6 6 6 6 7 8 8 9 9 8
10 13 8 10 6 3 10 9 6 6 5 13 18 10 6 6 5 6 6 4 2 1 2 6 11 11 5 0 3 7 4 4 15 20 10 6 8 6 5 6 7 8 9 6 5 5 5 4 4 4 7 9 9 10 10 9 7 6 6 6 6 7 7 6 6 5 6 6 5 6 7 8 7 7 8 9 9 8 8 8 7 8 8 8 9 9 9 8 8 9 9 9 10 10 10 9 9
10 11 10 9 7 5 5 3 7 6 -3 5 13 9 7 8 8 11 11 8 5 3 1 2 7 9 9 10 10 10 8 5 12 16 12 9 9 6 5 6 5 8 9 9 8 6 5 5 3 3 4 6 7 8 9 9 9 7 6 5 5 6 6 6 6 6 7 7 6 5 5 6 6 6 7 8 8 8 9 8 8 8 8 8 8 8 8 9 9 9 10 10 10 10 10 10 10
10 10 13 11 8 7 5 1 4 5 -2 1 7 8 6 5 11 16 12 9 8 7 5 4 6 7 8 11 11 11 10 7 7 8 6 9 10 7 5 5 6 7 8 9 10 9 7 6 4 3 3 3 4 6 7 8 9 9 9 7 6 5 6 5 5 6 7 7 8 6 5 5 4 4 6 6 7 8 8 8 8 8 8 8 9 9 8 8 8 8 8 8 8 9 9 9 9
Height
5900 5900 5901 5901 5902 5902 5902 5902 5901 5901 5901 5902 5902 5903 5904 5905 5906 5907 5907 5907 5907 5908 5907 5907 5907 5907 5907 5907 5907 5907 5907 5908 5908 5909 5909 5909 5910 5910 5910 5911 5911 5912 5912 5913 5912 5912 5912 5912 5912 5912 5913 5913 5913 5913 5913 5914 5914 5914 5915 5916 5917 5917 5917 5918 5918 5919 5919 5919 5919 5919 5919 5919 5919 5920 5920 5921 5921 5921 5921 5922 5922 5922 5921 5921 5921 5921 5921 5921 5922 5923 5924 5926 5927 5927 5927 5927 5928
5900 5900 5901 5901 5902 5902 5902 5902 5902 5901 5902 5902 5903 5903 5904 5906 5907 5907 5908 5908 5908 5908 5908 5907 5907 5907 5908 5908 5908 5908 5908 5908 5908 5908 5909 5909 5910 5910 5911 5911 5912 5913 5913 5913 5913 5913 5913 5913 5913 5913 5913 5913 5913 5913 5913 5914 5914 5915 5916 5917 5917 5918 5918 5918 5919 5919 5920 5920 5919 5919 5919 5919 5919 5919 5920 5920 5920 5921 5921 5922 5922 5922 5921 5921 5921 5921 5921 5921 5922 5923 5925 5927 5927 5927 5927 5928 5928
5900 5900 5901 5901 5902 5902 5902 5903 5902 5902 5902 5902 5903 5904 5905 5906 5907 5908 5908 5908 5909 5908 5908 5908 5908 5908 5908 5909 5909 5909 5909 5909 5909 5909 5909 5910 5910 5911 5911 5912 5913 5913 5914 5914 5914 5913 5913 5914 5914 5914 5914 5913 5913 5913 5914 5914 5915 5915 5916 5917 5918 5918 5918 5919 5919 5920 5920 5920 5919 5919 5919 5919 5919 5919 5919 5919 5920 5921 5921 5921 5922 5922 5921 5921 5922 5922 5921 5922 5923 5923 5926 5928 5928 5927 5928 5929 5929
5900 5901 5901 5901 5902 5901 5901 5902 5902 5902 5902 5902 5903 5904 5905 5906 5907 5908 5908 5909 5909 5909 5908 5908 5908 5908 5909 5909 5910 5910 5910 5910 5910 5909 5910 5911 5911 5911 5912 5913 5913 5914 5914 5914 5914 5914 5914 5915 5915 5915 5915 5914 5914 5914 5915 5915 5915 5916 5917 5918 5918 5919 5919 5919 5919 5920 5921 5920 5919 5919 5918 5918 5919 5919 5919 5920 5921 5921 5922 5922 5923 5923 5922 5922 5922 5922 5921 5922 5923 5924 5926 5928 5928 5929 5929 5929 5930
5901 5901 5901 5901 5901 5901 5901 5901 5901 5901 5901 5902 5903 5904 5906 5907 5908 5909 5909 5909 5910 5909 5909 5909 5909 5909 5910 5910 5910 5911 5911 5911 5911 5910 5911 5911 5911 5912 5913 5914 5914 5914 5914 5915 5915 5915 5915 5915 5915 5915 5916 5915 5915 5915 5915 5915 5916 5916 5917 5918 5919 5919 5919 5919 5919 5920 5920 5920 5919 5919 5919 5920 5920 5921 5921 5921 5922 5923 5924 5924 5924 5924 5924 5923 5922 5922 5922 5922 5923 5925 5926 5927 5929 5930 5931 5931 5931
5901 5901 5900 5900 5901 5901 5901 5901 5901 5902 5902 5903 5904 5905 5906 5907 5908 5909 5910 5910 5910 5910 5910 5909 5910 5910 5910 5911 5911 5912 5912 5912 5912 5912 5911 5912 5912 5912 5913 5914 5915 5915 5915 5915 5916 5915 5915 5916 5916 5916 5916 5916 5916 5915 5915 5916 5916 5916 5917 5917 5918 5919 5919 5920 5920 5921 5921 5920 5920 5919 5921 5924 5924 5923 5923 5922 5922 5923 5923 5924 5924 5925 5925 5925 5924 5923 5924 5923 5924 5926 5926 5927 5929 5932 5932 5932 5932
5900 5900 5900 5899 5900 5900 5901 5901 5901 5902 5903 5904 5905 5905 5907 5908 5909 5910 5910 5910 5911 5911 5910 5910 5911 5911 5911 5912 5912 5913 5913 5913 5913 5913 5913 5913 5913 5913 5914 5915 5916 5916 5916 5916 5916 5916 5916 5916 5916 5916 5916 5916 5916 5916 5916 5916 5916 5916 5916 5917 5918 5919 5920 5921 5922 5922 5922 5922 5922 5922 5924 5926 5925 5923 5922 5922 5921 5921 5922 5922 5923 5924 5925 5926 5926 5925 5925 5924 5925 5926 5927 5928 5930 5932 5933 5932 5933
5899 5899 5899 5898 5899 5899 5900 5901 5902 5902 5903 5904 5905 5906 5907 5908 5909 5910 5910 5910 5911 5911 5911 5911 5912 5912 5912 5912 5913 5914 5914 5914 5914 5914 5914 5914 5914 5914 5915 5916 5916 5916 5917 5917 5917 5916 5916 5917 5917 5917 5917 5917 5916 5916 5916 5916 5916 5916 5916 5916 5917 5919 5920 5922 5923 5923 5922 5922 5923 5924 5924 5923 5924 5924 5924 5923 5922 5922 5922 5923 5923 5924 5925 5926 5927 5926 5926 5926 5926 5927 5928 5930 5931 5932 5933 5933 5934
5898 5898 5897 5896 5897 5899 5901 5902 5903 5903 5903 5905 5906 5906 5907 5908 5909 5910 5910 5911 5911 5912 5912 5912 5912 5913 5913 5913 5914 5914 5915 5915 5915 5915 5915 5915 5915 5915 5916 5916 5916 5917 5917 5917 5917 5917 5916 5917 5917 5917 5917 5917 5916 5916 5916 5917 5917 5917 5917 5917 5918 5919 5921 5922 5923 5922 5921 5922 5923 5925 5924 5922 5923 5926 5926 5925 5924 5923 5923 5922 5922 5923 5924 5925 5926 5927 5927 5926 5927 5927 5928 5930 5931 5933 5933 5933 5935
5897 5897 5896 5895 5897 5899 5901 5902 5903 5903 5904 5905 5906 5907 5907 5908 5909 5910 5910 5911 5912 5912 5912 5912 5913 5914 5914 5914 5915 5915 5916 5916 5916 5916 5916 5915 5915 5916 5916 5916 5916 5916 5917 5918 5917 5917 5917 5917 5918 5917 5917 5917 5917 5917 5917 5917 5917 5917 5918 5918 5919 5920 5921 5922 5922 5922 5922 5923 5925 5926 5925 5923 5924 5926 5926 5924 5923 5923 5922 5922 5923 5923 5924 5925 5926 5926 5927 5927 5928 5928 5929 5930 5931 5933 5933 5934 5935
5896 5896 5896 5896 5897 5900 5901 5902 5903 5903 5904 5905 5907 5907 5908 5908 5909 5910 5910 5911 5912 5912 5912 5913 5913 5914 5914 5915 5915 5916 5916 5916 5916 5917 5917 5916 5916 5917 5917 5917 5917 5917 5917 5918 5918 5918 5918 5918 5918 5918 5917 5917 5917 5917 5918 5918 5918 5918 5918 5919 5919 5920 5920 5921 5922 5923 5924 5925 5926 5926 5925 5923 5923 5925 5926 5924 5922 5922 5923 5923 5923 5923 5924 5925 5925 5926 5927 5928 5929 5930 5930 5930 5931 5932 5933 5934 5935
5896 5896 5896 5897 5898 5899 5901 5902 5903 5904 5905 5906 5907 5908 5908 5909 5909 5910 5911 5911 5912 5912 5913 5913 5914 5914 5915 5915 5916 5916 5917 5917 5917 5918 5917 5917 5917 5917 5918 5918 5918 5918 5918 5919 5919 5919 5919 5919 5919 5919 5918 5918 5918 5918 5918 5918 5918 5918 5919 5920 5920 5920 5920 5922 5923 5924 5925 5925 5926 5926 5925 5923 5923 5925 5927 5926 5924 5923 5922 5922 5922 5922 5923 5925 5926 5926 5927 5928 5929 5930 5930 5930 5931 5933 5934 5935 5936
5896 5896 5897 5897 5898 5899 5901 5902 5903 5905 5905 5906 5908 5908 5909 5909 5910 5910 5911 5912 5912 5912 5913 5914 5914 5915 5915 5916 5916 5917 5917 5918 5918 5919 5918 5918 5918 5918 5918 5918 5918 5918 5919 5919 5920 5920 5920 5920 5919 5920 5919 5919 5919 5919 5919 5918 5918 5919 5920 5920 5921 5920 5921 5922 5923 5924 5925 5925 5926 5925 5925 5925 5925 5925 5926 5926 5926 5924 5921 5921 5921 5922 5924 5925 5926 5926 5927 5928 5929 5930 5930 5931 5933 5935 5936 5936 5936
5898 5898 5898 5898 5899 5899 5901 5902 5904 5905 5906 5907 5908 5909 5910 5910 5910 5911 5912 5912 5912 5913 5914 5915 5915 5915 5916 5916 5917 5917 5918 5918 5919 5919 5919 5919 5919 5919 5919 5919 5919 5919 5919 5920 5920 5921 5921 5920 5920 5920 5919 5920 5920 5919 5919 5919 5919 5920 5920 5921 5921 5921 5922 5923 5924 5924 5925 5926 5926 5926 5925 5927 5926 5925 5925 5925 5926 5926 5923 5922 5922 5922 5924 5925 5926 5926 5926 5927 5929 5930 5932 5934 5935 5936 5936 5937 5937
5899 5899 5899 5899 5900 5900 5901 5903 5904 5905 5906 5908 5909 5910 5910 5910 5911 5912 5912 5912 5913 5913 5914 5915 5916 5916 5916 5916 5917 5918 5918 5919 5920 5920 5920 5920 5920 5920 5920 5920 5920 5920 5920 5921 5921 5921 5921 5921 5921 5920 5920 5920 5920 5920 5920 5920 5920 5921 5921 5921 5922 5922 5922 5923 5923 5924 5926 5927 5927 5926 5927 5928 5927 5925 5926 5926 5926 5927 5925 5922 5922 5923 5924 5924 5926 5926 5926 5928 5931 5932 5934 5935 5936 5936 5936 5937 5938
5900 5900 5900 5899 5900 5901 5901 5903 5905 5906 5907 5908 5909 5910 5911 5911 5911 5912 5913 5913 5913 5913 5914 5916 5917 5917 5917 5917 5917 5918 5919 5919 5920 5921 5921 5921 5921 5921 5921 5921 5921 5921 5921 5921 5921 5921 5921 5921 5921 5921 5921 5920 5920 5920 5920 5921 5921 5921 5922 5922 5922 5922 5923 5923 5924 5925 5927 5927 5927 5927 5928 5929 5928 5926 5927 5927 5927 5928 5926 5923 5923 5925 5926 5927 5928 5929 5931 5932 5934 5934 5934 5934 5935 5936 5937 5938 5940
5899 5899 5899 5899 5900 5901 5902 5903 5904 5906 5907 5908 5909 5910 5911 5911 5912 5912 5913 5913 5914 5914 5914 5916 5917 5917 5918 5918 5918 5918 5919 5920 5921 5922 5922 5922 5922 5922 5922 5922 5922 5922 5922 5922 5922 5922 5922 5922 5922 5922 5921 5921 5921 5921 5921 5922 5922 5922 5923 5923 5922 5922 5923 5923 5924 5926 5927 5928 5928 5928 5928 5928 5928 5927 5928 5928 5928 5928 5927 5925 5925 5927 5929 5930 5931 5933 5933 5933 5933 5932 5932 5934 5935 5936 5938 5939 5941
5898 5898 5898 5898 5900 5901 5902 5904 5904 5906 5907 5908 5909 5910 5911 5912 5912 5913 5913 5914 5914 5914 5915 5916 5917 5918 5919 5919 5919 5918 5920 5921 5922 5923 5923 5923 5923 5923 5923 5923 5923 5923 5923 5923 5923 5923 5923 5922 5922 5922 5922 5922 5922 5922 5922 5922 5923 5923 5923 5923 5922 5923 5923 5924 5925 5926 5927 5928 5928 5928 5928 5928 5928 5928 5929 5929 5928 5927 5927 5927 5927 5929 5930 5931 5932 5933 5932 5932 5932 5932 5933 5934 5936 5937 5939 5941 5942
5898 5897 5898 5898 5900 5902 5903 5904 5905 5906 5907 5908 5909 5910 5911 5912 5912 5913 5913 5914 5914 5914 5915 5916 5917 5918 5920 5921 5920 5919 5920 5922 5923 5924 5924 5924 5924 5924 5924 5924 5924 5924 5924 5923 5923 5923 5923 5923 5923 5923 5923 5923 5922 5922 5922 5923 5923 5924 5924 5923 5923 5924 5924 5925 5926 5927 5928 5929 5929 5928 5928 5928 5929 5930 5930 5929 5929 5928 5928 5928 5929 5929 5930 5931 5931 5931 5931 5932 5933 5934 5935 5936 5938 5940 5941 5942 5944
5898 5897 5898 5900 5901 5903 5904 5905 5906 5907 5907 5908 5909 5910 5911 5912 5912 5913 5913 5914 5914 5914 5915 5916 5917 5918 5920 5921 5920 5920 5921 5922 5923 5924 5924 5924 5924 5925 5925 5925 5925 5925 5924 5924 5924 5924 5925 5924 5924 5924 5924 5924 5923 5923 5923 5924 5924 5925 5925 5925 5925 5925 5926 5927 5928 5928 5929 5929 5929 5928 5929 5929 5930 5931 5931 5930 5930 5929 5928 5928 5929 5929 5930 5931 5932 5933 5933 5934 5934 5935 5937 5939 5941 5943 5944 5945 5947
5899 5898 5900 5901 5902 5903 5904 5906 5906 5907 5908 5908 5909 5910 5911 5912 5913 5913 5914 5914 5914 5915 5916 5916 5916 5918 5920 5921 5921 5920 5921 5923 5924 5924 5924 5925 5925 5925 5926 5926 5926 5925 5925 5925 5925 5925 5925 5925 5925 5925 5925 5925 5925 5924 5925 5925 5926 5926 5926 5926 5927 5927 5928 5928 5929 5930 5930 5930 5930 5930 5930 5930 5931 5932 5931 5931 5930 5929 5928 5929 5930 5931 5932 5934 5935 5935 5935 5936 5936 5938 5940 5942 5943 5945 5947 5948 5949
5901 5900 5901 5902 5903 5904 5905 5906 5907 5908 5909 5909 5910 5910 5911 5912 5913 5914 5914 5914 5915 5915 5917 5917 5917 5918 5920 5921 5921 5921 5922 5924 5925 5925 5925 5926 5926 5926 5926 5926 5926 5926 5926 5926 5926 5926 5926 5926 5926 5926 5926 5926 5926 5926 5926 5926 5927 5928 5928 5928 5928 5928 5929 5930 5931 5931 5931 5931 5931 5931 5932 5932 5932 5932 5932 5932 5931 5931 5930 5931 5932 5934 5935 5936 5936 5937 5937 5938 5939 5941 5943 5944 5946 5947 5948 5949 5950
5901 5901 5902 5902 5903 5905 5906 5906 5907 5908 5909 5910 5910 5911 5912 5912 5913 5914 5914 5915 5915 5916 5917 5918 5919 5919 5920 5921 5922 5922 5923 5925 5925 5926 5926 5926 5927 5927 5927 5927 5927 5927 5927 5927 5927 5927 5927 5927 5927 5927 5927 5927 5927 5927 5927 5928 5928 5929 5929 5930 5929 5930 5930 5931 5932 5932 5932 5932 5933 5933 5933 5932 5933 5933 5933 5933 5933 5933 5933 5934 5935 5936 5937 5938 5938 5939 5939 5940 5941 5942 5944 5945 5947 5948 5949 5949 5950
5901 5902 5902 5903 5904 5905 5906 5907 5907 5908 5909 5909 5911 5912 5912 5913 5913 5914 5914 5915 5915 5917 5918 5918 5919 5920 5922 5923 5923 5923 5923 5925 5926 5926 5926 5927 5927 5928 5928 5928 5928 5928 5928 5928 5928 5928 5928 5928 5928 5928 5928 5928 5927 5927 5928 5929 5930 5930 5931 5931 5931 5931 5931 5932 5932 5933 5933 5934 5935 5935 5934 5934 5934 5934 5935 5935 5935 5935 5935 5936 5937 5938 5939 5940 5941 5941 5942 5942 5942 5943 5945 5946 5947 5949 5949 5950 5951
5902 5902 5903 5904 5905 5906 5906 5907 5907 5908 5909 5910 5911 5912 5913 5913 5913 5914 5914 5915 5916 5917 5918 5918 5919 5921 5923 5924 5924 5923 5924 5925 5926 5926 5927 5927 5928 5928 5929 5929 5929 5929 5929 5929 5929 5929 5929 5929 5929 5929 5929 5928 5928 5928 5929 5930 5931 5932 5932 5933 5933 5933 5933 5933 5933 5933 5934 5934 5935 5935 5935 5935 5935 5936 5936 5936 5935 5935 5936 5937 5938 5939 5940 5941 5943 5943 5944 5944 5945 5946 5947 5948 5949 5950 5951 5951 5952
5902 5902 5903 5904 5905 5906 5906 5907 5907 5908 5909 5910 5911 5912 5913 5913 5914 5914 5914 5915 5916 5917 5918 5919 5920 5921 5923 5924 5925 5924 5924 5926 5926 5927 5927 5928 5928 5929 5929 5930 5930 5930 5930 5930 5930 5930 5930 5930 5929 5929 5929 5929 5929 5929 5930 5931 5932 5933 5934 5934 5934 5934 5934 5934 5934 5935 5935 5935 5934 5935 5935 5936 5937 5937 5937 5936 5936 5936 5936 5937 5939 5940 5941 5942 5944 5945 5945 5946 5947 5948 5949 5950 5950 5951 5952 5953 5953
5902 5902 5903 5903 5904 5905 5906 5907 5908 5909 5910 5911 5911 5912 5912 5913 5914 5914 5914 5915 5916 5917 5918 5919 5920 5921 5923 5924 5926 5926 5926 5926 5927 5927 5928 5929 5929 5930 5930 5930 5931 5931 5931 5931 5931 5931 5931 5930 5930 5930 5930 5930 5930 5930 5931 5932 5933 5934 5934 5935 5935 5935 5935 5935 5936 5936 5936 5935 5935 5935 5936 5937 5938 5938 5937 5937 5936 5937 5937 5938 5939 5941 5942 5943 5944 5945 5946 5947 5948 5949 5950 5951 5952 5952 5953 5954 5955
5902 5902 5903 5903 5904 5905 5906 5907 5908 5908 5909 5910 5911 5912 5912 5913 5914 5914 5914 5915 5916 5917 5919 5920 5920 5921 5923 5924 5926 5926 5927 5927 5928 5928 5929 5929 5930 5930 5931 5931 5931 5931 5931 5931 5931 5931 5931 5931 5931 5931 5931 5931 5931 5931 5932 5933 5933 5934 5935 5935 5936 5936 5936 5936 5937 5936 5936 5936 5936 5937 5938 5938 5938 5937 5937 5937 5937 5937 5938 5939 5940 5941 5942 5943 5945 5945 5946 5947 5948 5949 5950 5951 5952 5953 5954 5955 5956
5901 5902 5902 5903 5903 5904 5905 5905 5906 5907 5908 5910 5911 5911 5912 5913 5914 5914 5915 5916 5917 5918 5919 5920 5921 5922 5923 5924 5926 5927 5928 5928 5928 5929 5929 5930 5930 5931 5931 5932 5932 5932 5932 5932 5932 5932 5932 5932 5932 5932 5932 5932 5932 5932 5933 5933 5934 5935 5936 5936 5937 5937 5938 5938 5937 5937 5937 5937 5938 5938 5938 5937 5937 5937 5936 5937 5937 5938 5939 5940 5941 5942 5943 5944 5945 5945 5947 5948 5949 5950 5951 5952 5953 5954 5955 5956 5957
5901 5901 5902 5902 5902 5903 5903 5903 5906 5907 5907 5909 5910 5910 5911 5912 5914 5914 5915 5916 5917 5918 5919 5920 5921 5922 5923 5924 5926 5928 5928 5928 5929 5930 5930 5931 5931 5932 5932 5933 5933 5933 5933 5933 5933 5932 5932 5932 5933 5933 5933 5933 5933 5933 5933 5934 5935 5936 5937 5937 5938 5938 5938 5938 5938 5939 5939 5939 5939 5938 5938 5937 5937 5937 5937 5937 5938 5939 5939 5941 5942 5943 5943 5944 5945 5946 5947 5948 5949 5950 5952 5953 5954 5955 5956 5957 5958
5900 5901 5901 5901 5902 5902 5902 5904 5906 5906 5907 5909 5909 5910 5911 5912 5913 5914 5915 5916 5917 5918 5919 5920 5921 5921 5923 5924 5926 5928 5929 5929 5929 5930 5931 5931 5932 5932 5933 5934 5934 5934 5934 5934 5934 5933 5933 5933 5933 5934 5934 5934 5934 5934 5934 5935 5935 5936 5937 5938 5938 5939 5939 5940 5940 5941 5941 5941 5940 5939 5939 5938 5938 5938 5938 5939 5939 5940 5940 5941 5942 5943 5944 5945 5946 5946 5948 5949 5950 5951 5953 5954 5955 5956 5957 5958 5959
5899 5900 5899 5899 5900 5901 5902 5905 5906 5906 5907 5908 5909 5910 5911 5912 5913 5914 5915 5916 5917 5918 5919 5921 5921 5922 5923 5924 5926 5928 5929 5929 5930 5930 5931 5932 5932 5933 5934 5934 5935 5935 5935 5935 5935 5935 5934 5934 5934 5935 5935 5934 5934 5935 5935 5936 5936 5937 5937 5938 5939 5939 5940 5941 5942 5942 5942 5942 5941 5941 5940 5940 5940 5940 5940 5940 5940 5941 5941 5942 5943 5944 5945 5946 5947 5947 5949 5950 5951 5952 5953 5955 5956 5957 5958 5959 5960
5898 5899 5898 5897 5898 5899 5901 5904 5905 5905 5906 5907 5908 5909 5910 5911 5913 5914 5915 5916 5917 5919 5920 5921 5921 5922 5923 5924 5926 5928 5929 5929 5930 5931 5932 5932 5933 5933 5934 5935 5935 5936 5936 5936 5936 5936 5935 5935 5935 5935 5935 5935 5935 5936 5936 5937 5937 5938 5938 5939 5940 5940 5941 5942 5942 5943 5943 5943 5943 5942 5942 5942 5942 5942 5942 5942 5942 5942 5943 5943 5944 5945 5946 5947 5948 5949 5950 5951 5952 5953 5954 5955 5957 5958 5959 5960 5961
5896 5898 5897 5896 5897 5899 5901 5903 5904 5905 5906 5906 5907 5908 5910 5911 5912 5913 5914 5915 5917 5918 5919 5920 5921 5922 5923 5924 5925 5927 5928 5929 5930 5931 5932 5933 5933 5934 5935 5935 5936 5936 5936 5936 5937 5937 5936 5936 5936 5936 5936 5937 5937 5937 5938 5938 5939 5939 5940 5940 5941 5941 5942 5942 5943 5943 5944 5944 5944 5943 5943 5943 5944 5944 5944 5944 5944 5944 5945 5945 5946 5946 5947 5948 5949 5950 5951 5952 5953 5954 5955 5956 5957 5959 5960 5961 5962
5894 5895 5896 5895 5897 5899 5901 5902 5903 5904 5905 5906 5906 5907 5909 5910 5911 5913 5913 5915 5916 5918 5919 5920 5921 5922 5923 5924 5925 5927 5928 5929 5930 5931 5932 5933 5934 5934 5935 5936 5936 5937 5937 5937 5938 5938 5938 5938 5938 5938 5938 5938 5938 5938 5939 5939 5940 5940 5941 5941 5942 5942 5943 5943 5943 5944 5944 5944 5945 5945 5944 5944 5945 5945 5945 5946 5946 5946 5946 5947 5947 5948 5949 5950 5951 5952 5953 5954 5954 5955 5956 5957 5959 5960 5961 5962 5963
5893 5893 5894 5895 5896 5898 5900 5901 5902 5903 5904 5905 5906 5907 5908 5909 5911 5912 5913 5914 5916 5917 5919 5920 5921 5922 5923 5924 5925 5927 5928 5929 5931 5931 5932 5933 5934 5934 5935 5936 5936 5937 5938 5938 5939 5939 5939 5939 5939 5939 5939 5939 5939 5940 5940 5940 5941 5942 5942 5943 5943 5943 5944 5944 5944 5945 5945 5945 5946 5946 5946 5946 5946 5946 5946 5947 5947 5947 5948 5949 5949 5950 5950 5951 5952 5953 5954 5955 5956 5957 5958 5959 5960 5961 5962 5963 5964
5892 5893 5894 5893 5895 5896 5898 5900 5901 5903 5903 5904 5905 5904 5905 5908 5910 5912 5913 5914 5916 5917 5919 5920 5922 5922 5923 5924 5925 5927 5928 5930 5931 5931 5932 5933 5934 5934 5935 5936 5937 5938 5938 5939 5939 5940 5940 5940 5940 5940 5940 5940 5940 5941 5941 5941 5942 5942 5943 5944 5944 5944 5945 5945 5945 5946 5946 5947 5947 5947 5947 5947 5947 5947 5947 5948 5948 5949 5949 5950 5951 5951 5952 5952 5953 5954 5955 5956 5957 5958 5959 5960 5961 5963 5964 5965 5966
5891 5892 5893 5893 5895 5895 5896 5899 5900 5901 5903 5904 5904 5903 5905 5908 5910 5912 5913 5914 5915 5916 5918 5919 5921 5922 5923 5924 5925 5926 5928 5929 5931 5931 5932 5933 5934 5934 5935 5936 5937 5938 5939 5940 5940 5940 5940 5941 5941 5941 5941 5941 5941 5941 5942 5942 5943 5943 5944 5944 5945 5945 5946 5946 5947 5947 5947 5948 5948 5948 5948 5949 5949 5949 5949 5949 5950 5950 5951 5952 5952 5953 5953 5954 5955 5956 5957 5958 5959 5960 5961 5962 5963 5964 5965 5966 5967
5891 5891 5892 5893 5894 5895 5895 5897 5899 5901 5902 5903 5904 5905 5906 5908 5910 5911 5913 5914 5915 5916 5917 5918 5920 5921 5922 5923 5924 5926 5928 5929 5930 5931 5932 5933 5934 5935 5935 5936 5937 5938 5939 5940 5941 5941 5941 5941 5941 5942 5942 5942 5942 5942 5942 5943 5943 5944 5944 5945 5946 5946 5947 5947 5948 5948 5949 5949 5949 5949 5949 5950 5950 5950 5951 5951 5951 5952 5952 5953 5954 5954 5955 5956 5957 5958 5959 5960 5961 5962 5963 5963 5964 5965 5967 5967 5968
5890 5890 5892 5893 5893 5895 5896 5896 5898 5900 5901 5902 5903 5905 5906 5907 5909 5911 5911 5913 5914 5915 5916 5918 5919 5920 5921 5923 5924 5925 5927 5928 5930 5931 5931 5932 5934 5935 5935 5936 5937 5938 5939 5940 5941 5942 5942 5942 5942 5942 5942 5943 5943 5943 5943 5944 5944 5945 5945 5946 5947 5947 5948 5948 5949 5949 5950 5950 5951 5951 5951 5951 5952 5952 5953 5953 5953 5953 5954 5954 5955 5956 5957 5958 5958 5959 5960 5961 5962 5963 5964 5965 5966 5967 5968 5968 5969
5888 5889 5890 5891 5893 5894 5895 5896 5897 5899 5900 5901 5903 5904 5905 5906 5908 5909 5910 5912 5913 5915 5916 5917 5919 5919 5921 5922 5923 5924 5926 5928 5929 5930 5931 5932 5933 5934 5935 5936 5937 5938 5940 5941 5942 5942 5943 5943 5943 5943 5943 5943 5944 5944 5944 5945 5945 5946 5947 5947 5948 5948 5949 5949 5950 5950 5951 5952 5952 5952 5953 5953 5953 5954 5954 5954 5955 5955 5955 5956 5957 5957 5958 5959 5960 5961 5962 5963 5963 5964 5965 5966 5967 5968 5969 5970 5970
5886 5888 5889 5891 5892 5893 5894 5895 5897 5898 5899 5900 5902 5903 5904 5905 5906 5907 5909 5911 5912 5914 5916 5917 5918 5919 5920 5922 5923 5924 5926 5927 5929 5930 5930 5931 5933 5934 5935 5936 5937 5938 5939 5941 5942 5943 5943 5944 5944 5944 5944 5944 5944 5945 5945 5945 5946 5947 5947 5948 5948 5949 5949 5950 5951 5951 5952 5953 5953 5954 5954 5955 5955 5956 5956 5956 5956 5956 5957 5957 5958 5959 5960 5961 5961 5962 5963 5964 5964 5965 5966 5967 5968 5969 5970 5971 5971
5884 5885 5887 5889 5891 5892 5893 5894 5896 5898 5898 5899 5900 5902 5904 5904 5905 5906 5908 5910 5911 5913 5914 5916 5918 5919 5920 5921 5922 5924 5925 5927 5928 5929 5930 5931 5932 5934 5935 5936 5937 5938 5939 5941 5942 5943 5943 5944 5944 5945 5945 5945 5945 5945 5946 5946 5946 5947 5947 5948 5948 5949 5950 5951 5952 5952 5953 5954 5955 5955 5956 5956 5957 5957 5958 5958 5958 5958 5958 5959 5959 5960 5961 5962 5963 5963 5964 5965 5965 5966 5967 5968 5969 5970 5971 5972 5972
5881 5882 5886 5888 5889 5891 5891 5893 5895 5896 5896 5897 5899 5901 5903 5904 5903 5905 5906 5908 5910 5912 5913 5915 5917 5918 5920 5921 5922 5923 5925 5926 5928 5929 5930 5931 5932 5933 5935 5936 5937 5938 5939 5940 5942 5943 5943 5944 5945 5945 5946 5946 5946 5946 5947 5947 5947 5947 5948 5948 5949 5950 5951 5952 5952 5953 5954 5955 5956 5957 5957 5957 5958 5958 5959 5959 5959 5959 5960 5960 5961 5961 5962 5963 5964 5965 5965 5966 5967 5967 5968 5969 5970 5971 5971 5973 5973
5877 5880 5884 5886 5887 5889 5890 5891 5893 5894 5895 5896 5898 5900 5902 5902 5902 5903 5904 5907 5910 5911 5912 5914 5916 5918 5919 5920 5922 5923 5924 5926 5927 5928 5929 5930 5932 5933 5934 5935 5936 5937 5939 5940 5941 5943 5943 5944 5945 5945 5946 5946 5946 5947 5947 5947 5948 5948 5949 5949 5950 5950 5951 5952 5953 5954 5955 5956 5957 5958 5958 5959 5959 5959 5960 5960 5960 5961 5961 5962 5962 5962 5963 5964 5965 5966 5967 5967 5968 5968 5969 5970 5971 5972 5972 5973 5974
5874 5879 5883 5884 5886 5887 5888 5890 5890 5892 5894 5896 5898 5899 5900 5901 5902 5902 5904 5906 5908 5909 5911 5913 5915 5917 5918 5920 5921 5922 5924 5925 5926 5927 5929 5929 5931 5932 5934 5935 5936 5937 5938 5940 5941 5942 5943 5944 5944 5945 5946 5946 5947 5947 5948 5948 5948 5949 5949 5950 5951 5951 5952 5953 5954 5955 5956 5957 5958 5958 5959 5960 5960 5961 5961 5961 5962 5962 5962 5963 5963 5964 5964 5965 5966 5967 5968 5968 5969 5969 5970 5971 5972 5973 5973 5974 5974
5873 5878 5880 5882 5885 5886 5887 5888 5888 5891 5894 5896 5897 5898 5899 5900 5900 5902 5903 5905 5906 5907 5910 5912 5914 5916 5917 5919 5920 5922 5923 5924 5926 5927 5928 5929 5930 5932 5934 5935 5936 5937 5938 5939 5940 5941 5943 5943 5944 5945 5945 5946 5947 5948 5948 5948 5949 5949 5950 5950 5951 5952 5952 5953 5954 5955 5956 5957 5958 5959 5960 5961 5961 5962 5962 5962 5963 5963 5964 5964 5964 5965 5966 5966 5967 5968 5969 5969 5970 5971 5971 5972 5973 5974 5974 5975 5975
5872 5876 5877 5880 5883 5885 5886 5887 5887 5890 5893 5894 5895 5897 5899 5899 5900 5902 5903 5904 5905 5907 5909 5911 5913 5915 5916 5918 5919 5921 5922 5923 5925 5926 5927 5928 5930 5932 5934 5935 5936 5937 5938 5939 5940 5941 5942 5943 5944 5944 5945 5946 5947 5948 5948 5949 5949 5949 5950 5950 5951 5952 5952 5953 5954 5955 5956 5957 5958 5959 5960 5961 5962 5963 5963 5963 5964 5964 5964 5965 5965 5966 5967 5967 5968 5969 5970 5970 5971 5972 5973 5973 5974 5975 5975 5975 5976
5870 5873 5875 5878 5881 5883 5884 5885 5887 5889 5891 5893 5895 5896 5898 5898 5899 5901 5903 5904 5906 5907 5909 5910 5911 5913 5915 5917 5918 5920 5921 5922 5924 5925 5926 5928 5929 5931 5933 5934 5935 5936 5937 5938 5939 5940 5941 5943 5943 5944 5945 5946 5947 5948 5948 5949 5949 5949 5950 5950 5951 5952 5953 5953 5954 5955 5956 5957 5958 5959 5960 5961 5962 5963 5963 5964 5964 5965 5965 5965 5966 5967 5968 5968 5969 5970 5971 5971 5972 5973 5973 5974 5975 5976 5976 5976 5976
5868 5870 5873 5876 5878 5880 5882 5885 5886 5888 5890 5892 5894 5896 5897 5898 5899 5901 5902 5904 5906 5907 5909 5909 5910 5911 5913 5914 5916 5918 5920 5921 5922 5924 5926 5927 5928 5930 5932 5933 5934 5935 5936 5937 5938 5939 5941 5942 5943 5944 5945 5945 5946 5947 5948 5949 5949 5949 5950 5950 5951 5952 5953 5954 5954 5955 5956 5957 5958 5959 5960 5961 5962 5963 5964 5964 5965 5965 5966 5966 5967 5968 5968 5969 5970 5971 5972 5972 5973 5973 5974 5975 5975 5976 5976 5977 5977
5866 5869 5872 5874 5876 5879 5882 5884 5885 5888 5890 5890 5891 5894 5896 5898 5899 5900 5902 5903 5905 5907 5908 5909 5910 5910 5911 5912 5914 5916 5918 5920 5921 5923 5925 5926 5927 5929 5931 5932 5933 5934 5935 5936 5938 5939 5940 5941 5942 5943 5944 5945 5946 5946 5947 5948 5949 5949 5950 5950 5951 5952 5953 5953 5954 5955 5956 5957 5958 5959 5960 5961 5961 5962 5963 5964 5965 5966 5966 5967 5968 5968 5969 5970 5971 5972 5972 5973 5973 5974 5975 5975 5976 5976 5977 5977 5977
5863 5866 5869 5872 5875 5878 5880 5881 5883 5886 5887 5887 5889 5892 5895 5897 5899 5900 5901 5902 5904 5906 5907 5908 5909 5909 5910 5911 5912 5914 5916 5918 5920 5922 5924 5925 5926 5927 5930 5932 5933 5934 5935 5936 5937 5938 5939 5940 5941 5942 5943 5944 5945 5946 5947 5948 5949 5949 5949 5950 5951 5952 5952 5953 5954 5955 5956 5957 5958 5959 5960 5960 5961 5962 5963 5964 5965 5966 5967 5967 5968 5969 5970 5970 5971 5972 5973 5973 5974 5974 5975 5975 5976 5976 5976 5977 5977
5860 5863 5866 5869 5872 5874 5876 5878 5880 5882 5884 5885 5888 5890 5893 5896 5896 5898 5900 5901 5903 5904 5906 5908 5908 5909 5909 5909 5911 5913 5915 5917 5919 5921 5922 5924 5925 5926 5928 5930 5932 5933 5934 5935 5936 5937 5938 5939 5941 5942 5943 5943 5944 5945 5946 5947 5948 5949 5949 5950 5951 5951 5952 5953 5954 5955 5956 5957 5957 5958 5959 5960 5961 5962 5963 5964 5965 5966 5967 5967 5968 5969 5970 5971 5971 5972 5973 5973 5974 5974 5975 5975 5975 5976 5976 5976 5976
5856 5860 5864 5866 5869 5871 5873 5876 5878 5880 5882 5883 5886 5888 5891 5893 5893 5895 5898 5899 5901 5903 5904 5906 5908 5908 5909 5909 5910 5912 5914 5916 5917 5919 5920 5922 5923 5925 5927 5929 5930 5932 5933 5934 5935 5936 5937 5939 5940 5941 5942 5943 5944 5945 5946 5947 5948 5949 5949 5950 5950 5951 5952 5953 5953 5954 5955 5956 5957 5958 5959 5960 5961 5962 5962 5963 5964 5965 5966 5967 5968 5969 5970 5970 5971 5972 5972 5973 5973 5974 5974 5974 5975 5975 5975 5976 5976
5852 5857 5860 5862 5865 5869 5871 5874 5876 5878 5880 5882 5883 5886 5890 5891 5891 5894 5896 5897 5899 5901 5902 5905 5906 5907 5908 5908 5910 5911 5912 5913 5915 5916 5918 5920 5922 5923 5924 5927 5928 5930 5931 5933 5934 5935 5937 5938 5939 5940 5941 5942 5943 5944 5945 5946 5947 5948 5949 5949 5950 5951 5952 5952 5953 5954 5954 5955 5956 5957 5958 5959 5960 5961 5962 5963 5964 5964 5965 5966 5967 5968 5969 5970 5971 5971 5972 5972 5973 5973 5973 5974 5974 5975 5975 5975 5975
5850 5854 5857 5858 5863 5866 5868 5871 5875 5876 5879 5880 5881 5885 5888 5888 5889 5892 5895 5896 5898 5899 5901 5903 5904 5906 5907 5907 5908 5909 5910 5911 5913 5915 5917 5918 5919 5921 5922 5924 5926 5928 5929 5931 5933 5934 5936 5937 5938 5939 5940 5941 5942 5943 5944 5945 5946 5947 5948 5949 5949 5950 5951 5952 5952 5953 5953 5954 5955 5956 5957 5959 5960 5961 5962 5963 5963 5964 5965 5965 5966 5967 5968 5969 5970 5970 5971 5971 5972 5972 5973 5973 5973 5974 5974 5974 5974
5847 5851 5854 5856 5860 5862 5864 5868 5871 5873 5875 5877 5879 5883 5884 5884 5887 5891 5894 5895 5896 5898 5900 5902 5903 5904 5905 5906 5907 5907 5908 5910 5911 5914 5915 5916 5917 5919 5921 5922 5924 5925 5927 5929 5931 5933 5934 5935 5936 5938 5939 5940 5941 5942 5943 5943 5944 5945 5946 5947 5948 5949 5950 5951 5951 5952 5952 5953 5954 5955 5956 5958 5959 5960 5961 5962 5963 5963 5964 5964 5965 5966 5967 5968 5968 5969 5970 5970 5971 5971 5972 5972 5972 5973 5973 5973 5973
5845 5848 5852 5854 5857 5859 5861 5864 5867 5869 5872 5874 5877 5879 5880 5882 5885 5889 5891 5893 5894 5896 5898 5900 5901 5902 5903 5904 5905 5906 5907 5908 5910 5912 5913 5915 5916 5918 5919 5920 5922 5923 5925 5927 5929 5931 5932 5933 5934 5936 5937 5938 5939 5941 5941 5942 5943 5944 5945 5946 5947 5948 5949 5949 5950 5951 5951 5952 5953 5954 5955 5956 5957 5958 5959 5960 5961 5962 5963 5963 5964 5965 5966 5966 5967 5968 5969 5969 5970 5970 5970 5971 5971 5972 5972 5972 5973